SCP
0 1 1 0 0 0 0 0 0 0 0 0 0 0 0 1 1 1 1 1 1 1 1 2 2 2 2 2 2 2 2 1 1 1 1 1 1 1 1 1 1 1 1 1
0 0 0 0 0 0 0 0 0 0 0 0 0 0 0 1 1 1 1 1 1 1 2 2 3 2 2 2 2 2 2 1 1 1 1 1 1 1 1 1 1 1 1 1
0 0 0 0 0 0 0 0 0 0 0 0 0 0 0 1 1 1 2 2 2 1 2 3 3 3 2 2 2 2 2 1 1 1 1 1 1 1 1 1 1 1 1 1
0 0 0 0 0 0 0 0 0 1 0 0 0 0 0 1 1 2 2 3 2 2 2 2 3 3 3 2 2 2 2 1 1 1 1 1 0 1 1 1 1 1 1 1
0 0 0 0 0 0 0 0 1 1 0 0 0 0 0 1 2 3 3 3 3 2 2 2 3 3 3 3 3 2 2 2 2 1 1 0 0 1 1 1 1 1 1 1
0 0 0 0 0 0 0 0 0 0 0 0 0 0 0 1 2 3 3 3 3 2 2 2 2 3 3 3 3 3 3 3 2 1 1 1 1 1 1 1 0 1 1 1
0 0 0 0 0 0 0 0 0 0 0 0 0 0 0 0 1 2 2 2 2 2 2 2 3 4 4 4 4 4 4 4 3 2 1 1 1 1 1 1 1 1 1 1
0 0 0 0 0 0 0 0 0 0 0 0 0 0 0 0 1 1 1 2 2 2 3 3 3 4 5 5 5 6 5 5 4 3 2 1 1 1 1 1 1 1 2 2
0 0 0 0 0 0 0 0 0 0 0 0 0 0 0 0 1 1 1 1 2 2 2 3 4 4 5 5 6 6 7 6 5 3 2 2 2 1 1 1 2 2 2 2
0 0 0 0 0 0 0 0 0 0 0 0 0 0 0 1 1 1 1 1 2 2 2 3 4 4 4 4 5 7 7 7 5 4 3 3 2 2 2 2 2 2 2 2
0 0 0 0 0 0 0 0 0 0 0 0 0 0 1 1 1 1 2 2 2 2 2 3 4 4 4 4 5 6 6 6 5 4 4 4 3 3 3 2 2 2 2 2
0 0 0 0 0 0 0 0 0 0 0 0 0 1 1 1 2 2 2 3 3 3 3 3 4 5 5 4 5 5 5 6 6 5 5 4 4 4 4 3 3 2 2 2
0 0 0 0 0 0 0 0 0 0 0 0 1 1 1 1 2 2 3 4 4 5 5 6 6 6 6 5 5 5 5 6 7 6 5 5 4 5 5 5 4 4 3 3
0 0 0 0 0 0 0 0 0 0 0 0 1 1 1 2 2 3 4 5 5 6 7 8 8 7 8 7 6 6 6 8 8 7 5 4 4 5 5 6 6 5 5 5
0 0 0 0 0 1 1 0 0 0 1 1 1 1 1 2 4 5 6 5 5 5 6 7 7 8 10 9 7 7 9 10 9 6 4 3 4 4 5 6 6 6 6 6
0 0 0 1 1 1 1 0 0 0 1 1 1 1 2 3 6 7 7 5 4 4 5 6 7 9 11 11 9 10 11 10 8 6 4 4 4 4 4 5 5 5 6 6
0 0 0 1 1 1 0 0 0 1 1 2 2 2 3 5 7 7 6 5 4 4 4 5 7 9 11 11 10 10 9 8 7 6 6 5 5 5 4 4 4 4 5 5
0 0 0 1 1 1 1 0 1 1 1 2 2 3 4 5 6 6 5 4 4 4 4 5 8 10 10 9 8 8 7 7 7 7 7 7 6 6 5 4 4 4 4 4
0 0 0 0 0 1 1 1 1 1 1 2 3 4 5 5 5 6 5 5 4 6 7 10 12 11 8 7 6 6 6 7 8 9 9 9 8 7 6 5 5 4 4 4
0 0 0 0 0 1 1 2 1 1 1 2 3 4 5 5 5 6 7 6 6 9 14 16 15 11 8 6 6 6 6 6 8 10 12 12 10 8 6 5 5 5 4 4
0 0 0 0 0 1 2 3 2 1 1 2 3 3 4 5 5 6 8 8 9 14 18 17 14 10 8 7 6 6 6 7 9 11 13 13 11 9 6 5 5 5 5 5
1 0 0 0 0 1 2 3 3 2 2 2 3 4 5 6 6 7 8 10 12 15 15 13 10 8 8 8 7 7 7 8 9 11 13 13 11 9 7 6 6 6 5 5
1 1 1 1 1 1 2 3 3 4 4 4 4 7 9 9 8 7 7 9 11 12 10 8 6 6 6 7 8 8 8 9 10 11 12 12 11 10 9 9 8 7 6 6
2 2 2 3 3 3 3 3 3 4 5 5 7 9 11 9 7 6 6 7 8 8 7 5 4 4 5 6 7 7 7 10 12 13 13 13 13 12 12 12 11 9 7 6
2 2 3 3 3 3 3 3 3 3 4 5 7 9 8 7 6 6 6 6 5 5 5 5 5 5 6 7 7 7 8 12 15 17 17 16 15 15 16 15 12 8 6 5
2 2 2 3 3 2 3 3 2 2 3 4 5 6 6 5 5 6 6 5 4 4 5 5 5 6 7 8 7 7 9 13 17 19 19 17 16 17 18 15 10 6 4 3
Wind_Speed
1 3 4 8 8 7 6 5 4 5 3 3 4 5 8 10 10 10 10 11 11 12 10 10 11 10 9 8 8 7 7 6 4 3 2 2 2 2 2 2 4 4 4 4
2 5 10 8 6 5 5 4 4 3 2 3 3 4 6 9 12 12 13 13 12 10 9 10 10 10 10 10 9 8 8 7 5 4 3 3 2 2 2 2 3 4 4 4
7 9 7 5 5 6 6 7 7 6 2 2 3 2 3 5 7 9 11 11 12 14 14 13 12 11 10 10 10 9 8 7 6 5 3 2 2 1 1 1 1 2 4 4
6 8 6 7 8 6 7 7 8 7 5 1 3 2 6 6 6 9 10 10 13 14 13 13 13 12 13 12 10 9 8 8 6 6 5 5 3 3 3 2 2 2 3 3
6 4 4 7 9 6 7 5 5 5 5 2 1 2 7 3 6 9 11 12 14 15 16 16 15 15 13 12 11 9 8 7 6 6 6 5 3 3 2 2 2 2 2 2
7 6 6 8 8 6 4 3 3 4 5 1 4 3 6 5 10 9 9 11 13 14 14 14 13 12 11 11 10 10 9 8 7 7 6 6 5 4 3 3 3 2 1 1
6 8 6 4 3 3 3 6 3 4 4 5 4 2 8 8 8 10 11 12 12 13 13 13 13 13 12 13 12 11 10 9 8 8 7 7 6 6 5 4 4 3 2 2
3 8 6 3 5 5 4 9 8 5 4 5 3 4 8 7 6 7 8 9 10 12 12 14 15 14 14 14 13 12 11 10 9 9 7 6 6 4 3 4 4 4 3 3
5 7 7 5 4 6 4 4 8 8 3 1 4 5 7 0 3 4 6 7 9 10 12 13 13 13 14 14 13 13 12 10 9 9 7 6 6 5 4 4 3 3 3 3
7 4 7 5 2 1 6 6 6 6 5 2 4 4 4 3 3 4 6 8 7 8 8 10 11 12 12 12 11 11 12 11 10 9 8 7 6 5 5 4 4 3 3 3
4 4 5 3 1 3 1 2 4 5 6 7 2 6 5 6 6 7 7 8 8 8 8 8 8 9 10 10 10 10 10 9 9 9 8 7 6 5 5 4 4 4 4 4
2 5 2 6 5 3 4 4 6 5 3 5 4 7 5 4 4 5 7 7 7 7 6 6 7 7 8 9 10 10 9 9 9 9 7 7 6 5 5 5 5 4 4 4
1 5 1 7 8 6 2 0 3 5 5 4 5 6 3 2 3 3 6 7 7 7 6 5 6 7 7 8 9 9 9 9 8 8 7 6 6 6 6 6 5 4 4 4
4 4 6 7 6 3 3 3 1 5 4 4 6 6 3 1 3 3 4 6 6 7 7 6 6 7 7 7 7 8 8 8 8 7 7 7 6 6 5 5 5 4 4 4
5 2 1 3 4 2 2 3 2 2 6 7 7 6 7 5 5 6 6 7 7 6 5 6 7 7 7 6 6 7 7 7 8 8 7 7 6 5 5 4 4 4 4 5
4 2 2 3 3 3 3 4 2 1 2 3 5 4 4 3 3 4 6 7 7 5 4 5 6 7 7 7 7 7 7 7 8 8 7 6 6 5 5 4 4 4 3 3
2 3 3 2 4 4 3 3 2 1 1 4 4 5 3 5 5 4 5 7 7 6 5 5 6 6 6 6 7 7 7 7 7 7 6 5 5 5 5 5 4 4 4 4
4 3 3 0 3 3 7 3 3 5 3 2 2 3 5 6 4 3 4 4 4 4 5 5 4 4 4 5 6 6 6 7 7 6 6 5 5 5 4 4 4 4 3 3
6 6 3 3 1 4 4 3 1 4 2 3 4 5 5 4 6 4 2 3 3 3 3 4 5 5 5 4 5 6 5 5 6 6 5 5 5 5 4 4 4 3 3 3
4 6 5 3 3 4 5 5 3 5 2 3 4 5 4 5 4 2 2 1 2 3 2 3 4 4 4 4 5 6 5 5 5 5 5 4 4 5 5 5 3 2 3 3
3 2 3 4 3 5 6 5 4 4 4 2 2 3 4 3 5 5 2 2 3 3 3 3 4 3 2 3 5 5 4 5 4 4 4 3 4 4 5 4 3 3 3 3
2 2 2 3 3 6 4 4 3 4 3 1 1 2 2 2 3 3 3 3 4 4 3 3 3 2 1 2 5 4 3 4 3 4 4 3 3 4 3 4 3 3 4 4
1 4 4 5 5 4 1 2 3 2 1 0 0 1 3 3 3 2 3 3 3 3 2 2 3 2 1 1 3 4 3 3 3 4 4 3 3 3 3 4 4 3 3 3
3 2 2 1 2 2 2 3 3 2 1 0 1 1 2 3 3 2 2 2 2 2 1 2 3 1 0 1 2 3 3 3 4 4 3 3 3 2 2 2 3 3 3 3
3 2 2 1 3 5 4 5 5 4 3 3 2 1 2 4 3 3 2 1 1 1 1 1 2 2 1 1 1 2 3 4 4 3 3 3 3 3 3 2 1 2 3 4
3 3 3 4 4 2 5 5 5 4 3 2 1 1 1 3 3 2 1 1 1 1 1 1 1 1 1 1 1 2 3 4 4 3 3 2 2 2 2 3 1 3 1 2
Wind_Direction
266 96 210 217 207 201 196 192 224 234 217 136 180 196 182 180 180 180 179 174 176 180 176 167 166 163 154 153 153 151 152 159 147 135 134 132 159 171 167 174 172 169 167 162
2 254 235 223 224 224 214 206 217 250 214 147 186 223 199 182 189 185 183 181 179 172 169 171 167 165 164 164 163 159 162 165 162 159 156 157 162 173 177 183 173 176 173 169
214 241 243 236 243 231 240 204 198 194 180 98 108 307 242 207 194 190 184 183 180 177 176 177 174 172 169 170 171 169 168 167 168 159 142 134 102 70 81 151 188 190 178 175
243 250 246 253 248 216 242 217 180 169 138 220 146 221 270 212 200 193 187 183 182 182 177 178 176 175 178 179 173 167 168 168 171 163 155 155 160 172 191 186 183 186 183 181
249 248 241 244 246 217 223 203 165 152 142 105 35 147 273 221 210 206 195 191 187 184 180 180 180 180 180 177 173 171 169 171 172 170 169 167 173 180 177 160 156 173 188 190
249 256 223 230 252 218 201 117 60 56 75 75 243 180 264 219 213 206 197 196 193 187 184 182 180 175 175 175 174 173 173 178 177 175 175 176 179 179 171 174 176 187 192 201
288 285 265 237 279 278 111 101 48 3 11 256 254 196 247 234 209 194 191 193 192 187 181 177 177 176 176 176 178 177 177 182 183 182 184 184 184 182 183 186 187 185 185 198
235 278 264 234 201 208 203 140 154 183 213 269 299 234 254 239 204 182 177 180 180 183 182 180 181 179 178 178 178 177 180 182 183 183 188 186 185 185 189 188 181 186 194 205
196 250 270 254 230 174 178 177 165 138 166 199 275 285 305 340 140 143 155 160 173 180 181 181 180 178 178 179 181 180 181 182 185 186 184 183 186 187 184 180 179 187 200 202
176 244 279 284 5 321 167 162 104 118 150 214 286 280 256 259 178 154 155 163 168 174 175 179 180 180 180 180 179 178 180 185 186 185 186 188 191 188 182 177 188 193 201 198
150 174 292 338 214 227 28 92 108 122 147 152 217 268 244 212 185 168 169 163 159 161 167 173 178 176 171 168 171 174 181 182 183 185 187 186 183 184 182 185 198 199 198 192
176 136 250 267 262 201 156 158 137 143 202 160 164 257 276 185 172 156 154 147 148 151 158 166 164 158 160 166 173 176 177 179 184 183 181 183 180 178 184 197 203 196 195 195
102 110 65 333 339 359 29 63 131 135 127 148 161 254 307 104 128 152 147 147 146 140 136 144 149 153 161 170 175 175 176 178 177 170 173 178 183 187 194 202 203 193 192 193
100 109 158 196 223 257 302 308 103 117 141 182 199 220 277 146 152 159 146 140 137 144 145 143 153 160 163 167 169 177 181 177 170 167 172 179 186 191 195 198 194 192 193 192
79 108 197 227 243 248 273 283 273 175 182 179 205 198 214 202 174 160 149 136 127 136 145 155 160 168 165 161 164 172 178 171 167 164 172 183 186 183 178 177 180 182 186 191
49 97 29 335 316 326 313 288 263 213 181 172 161 207 223 169 111 109 120 125 127 139 157 166 166 163 165 168 168 169 172 168 163 168 179 182 179 178 177 180 180 177 185 187
20 82 72 294 310 9 308 270 172 115 104 149 180 215 160 115 111 133 138 134 140 148 160 169 171 167 171 173 169 172 169 163 160 167 172 175 176 177 180 180 173 178 187 184
145 101 120 117 27 231 248 268 114 110 69 64 126 138 135 135 136 104 94 115 131 147 159 164 164 166 169 168 163 160 157 157 161 166 170 169 171 178 179 174 180 186 183 181
155 139 124 120 178 273 294 324 50 114 42 25 108 115 116 127 87 44 38 101 139 155 157 158 156 156 159 155 150 139 138 145 152 165 172 173 173 172 172 178 184 181 169 167
81 112 124 139 165 225 251 302 319 93 28 351 100 126 134 106 105 248 280 101 94 104 114 122 126 122 127 148 146 138 148 155 169 178 177 172 172 173 177 181 178 173 166 170
29 55 141 166 198 257 277 305 40 106 227 274 122 147 149 153 184 199 168 97 90 87 91 108 110 114 138 142 134 143 156 176 186 173 160 162 179 179 179 177 170 162 159 154
191 164 181 150 184 249 314 35 103 204 245 253 125 147 133 139 134 132 122 104 87 72 68 88 104 106 108 128 131 141 174 188 168 155 158 172 183 184 172 164 167 162 156 157
195 188 181 178 207 239 296 148 183 172 159 333 99 173 131 133 130 121 118 113 105 98 93 97 111 100 59 153 156 162 190 170 154 149 159 170 178 179 165 160 165 166 165 172
318 12 75 20 288 317 8 36 18 26 68 115 112 113 128 136 137 119 113 111 100 100 104 96 93 107 165 175 176 176 172 160 148 150 157 158 156 154 148 147 158 165 173 181
290 360 30 320 304 343 353 4 354 342 13 34 41 84 129 131 134 130 130 138 132 115 129 116 129 165 197 188 201 187 167 150 146 155 159 155 156 156 148 138 158 178 192 189
228 194 187 233 238 237 285 313 338 343 348 24 39 13 78 141 146 142 153 180 150 129 115 107 110 143 185 169 221 207 181 165 156 158 159 162 160 157 154 142 86 32 104 165